Regional Weather Roundup
Issued by NWS Sioux Falls, SD

Home | Current Version | Previous Version | Text Only | Print | Product List | Glossary On
Versions: 1 2 3 4 5 6 7 8 9 10 11 12 13 14 15 16 17 18 19 20 21 22 23 24 25 26 27 28 29 30 31 32 33 34 35 36 37 38 39 40 41 42 43 44 45 46 47 48 49 50
000
ASUS43 KFSD 220610
RWRFSD

WEATHER ROUNDUP FOR SE SOUTH DAKOTA/SW MINNESOTA/NW IOWA
NATIONAL WEATHER SERVICE SIOUX FALLS SD
100 AM CDT MON SEP 22 2014

NOTE: "FAIR" INDICATES FEW OR NO CLOUDS BELOW 12,000 FEET WITH NO
SIGNIFICANT WEATHER AND OR OBSTRUCTIONS TO VISIBILITY.


SDZ038>040-050-052>070-220700-
SOUTHEAST SOUTH DAKOTA

CITY           SKY/WX    TMP DP  RH WIND       PRES   REMARKS
CHAMBERLAIN    CLEAR     49  43  80 SE3       30.26F
6HR MIN TEMP:  46; 6HR MAX TEMP:  70;

HURON          CLEAR     44  41  89 CALM      30.25R
6HR MIN TEMP:  44; 6HR MAX TEMP:  67;

MADISON        FAIR      45  45 100 CALM      30.27F
MITCHELL       CLEAR     53  46  77 SW6       30.27R
6HR MIN TEMP:  50; 6HR MAX TEMP:  67;

SIOUX FALLS    CLEAR     47  45  93 CALM      30.26F
6HR MIN TEMP:  47; 6HR MAX TEMP:  64;

WINNER         FAIR      46  40  79 S6        30.26F
YANKTON        CLEAR     48  45  87 SW7       30.27S
$$

MNZ071-072-080-081-089-090-097-098-220700-
SOUTHWEST MINNESOTA

CITY           SKY/WX    TMP DP  RH WIND       PRES   REMARKS
FAIRMONT       CLEAR     48  43  81 NW3       30.26S
JACKSON        CLEAR     45  43  93 CALM      30.27S FOG
LUVERNE        CLEAR     45  41  87 CALM      30.28S
MARSHALL       CLEAR     46  41  81 CALM      30.25F
6HR MIN TEMP:  46; 6HR MAX TEMP:  63;

MONTEVIDEO     CLEAR     46  45  93 W3        30.26S
PIPESTONE      CLEAR     48  45  87 CALM      30.27S
REDWOOD FALLS  CLEAR     49  46  90 SW3       30.25S
TRACY          CLEAR     50  47  90 CALM      30.27S
WINDOM         CLEAR     45  43  93 CALM      30.27S FOG
WORTHINGTON    CLEAR     45  43  93 CALM      30.28S
$$

IAZ001>003-012>014-020>022-031-032-NEZ013-014-SDZ071-220700-
NORTHWEST IOWA

CITY           SKY/WX    TMP DP  RH WIND       PRES   REMARKS
CHEROKEE       CLEAR     48  48 100 CALM      30.28R
DENISON        CLEAR     48  48 100 CALM      30.26R
ESTHERVILLE    CLEAR     45  43  93 NW5       30.26S
LE MARS          N/A     46  46 100 CALM      30.28R
ORANGE CITY    CLEAR     54  45  71 CALM      30.27S
SHELDON        CLEAR     45  45 100 N3        30.26S
SIOUX CITY     CLEAR     48  46  93 W5        30.28R
6HR MIN TEMP:  48; 6HR MAX TEMP:  68;

SPENCER        CLEAR     43  42  97 W3        30.27S
6HR MIN TEMP:  43; 6HR MAX TEMP:  64;

$$

ABBREVIATIONS USED IN REMARKS
   TC - TEMPERATURE IN CELSIUS
  WCI - WIND CHILL INDEX
   HX - HEAT INDEX
  VSB - VISIBILITY



USA.gov is the U.S. government's official web portal to all federal, state and local government web resources and services.